W0VI Weather Reports


Display with metric or nautical units.
time (UTC)temp
F
wind
direction
speed
MPH
gust
MPH
rain 1hr
in
rain 24hr
in
rain mn
in
humidity
%
barometer
mb
20260504050346 56 201 3.0 3.0 0.00 0.00 0.00 50 1001.2
20260504045843 55 209 2.0 2.0 0.00 0.00 0.00 53 1001.4
20260504045338 55 222 1.0 2.0 0.00 0.00 0.00 51 1001.4
20260504044835 55 209 2.0 5.0 0.00 0.00 0.00 51 1001.7
20260504044332 55 201 2.0 3.0 0.00 0.00 0.00 51 1001.7
20260504043830 55 249 1.0 2.0 0.00 0.00 0.00 52 1001.8
20260504043327 55 266 1.0 2.0 0.00 0.00 0.00 51 1002.0
20260504042824 55 244 2.0 2.0 0.00 0.00 0.00 50 1002.0
20260504042320 55 232 1.0 1.0 0.00 0.00 0.00 51 1002.0
20260504041817 55 228 1.0 1.0 0.00 0.00 0.00 52 1002.5
20260504041313 55 258 1.0 1.0 0.00 0.00 0.00 51 1002.2
20260504040809 55 259 0.0 1.0 0.00 0.00 0.00 52 1002.5
20260504040307 54 219 1.0 1.0 0.00 0.00 0.00 52 1002.5
20260504035802 54 272 0.0 0.0 0.00 0.00 0.00 53 1002.6
20260504035300 54 280 0.0 0.0 0.00 0.00 0.00 54 1002.6
20260504034757 54 308 0.0 0.0 0.00 0.00 0.00 57 1002.9
20260504034255 54 313 0.0 1.0 0.00 0.00 0.00 57 1003.0
20260504033751 54 307 0.0 0.0 0.00 0.00 0.00 55 1002.9
20260504033249 55 304 0.0 0.0 0.00 0.00 0.00 55 1003.2
20260504032746 55 303 0.0 1.0 0.00 0.00 0.00 56 1003.2
20260504032243 56 279 1.0 1.0 0.00 0.00 0.00 53 1003.3
20260504031739 56 267 1.0 1.0 0.00 0.00 0.00 53 1003.5
20260504031238 56 260 1.0 1.0 0.00 0.00 0.00 52 1003.6
20260504030732 56 266 0.0 1.0 0.00 0.00 0.00 49 1003.4
20260504030230 55 266 0.0 0.0 0.00 0.00 0.00 49 1003.6
20260504025726 56 266 0.0 0.0 0.00 0.00 0.00 48 1003.5
20260504025223 57 265 0.0 0.0 0.00 0.00 0.00 45 1003.7
20260504024720 58 265 0.0 0.0 0.00 0.00 0.00 44 1003.6
20260504024217 58 267 0.0 0.0 0.00 0.00 0.00 44 1003.7
20260504023714 59 267 0.0 0.0 0.00 0.00 0.00 44 1003.8
20260504023209 59 267 0.0 0.0 0.00 0.00 0.00 41 1003.8
20260504022706 60 264 0.0 1.0 0.00 0.00 0.00 39 1003.7
20260504022202 60 297 0.0 0.0 0.00 0.00 0.00 38 1003.7
20260504021700 61 300 0.0 0.0 0.00 0.00 0.00 39 1003.6
20260504021156 61 258 1.0 1.0 0.00 0.00 0.00 39 1003.8
20260504020653 61 263 0.0 1.0 0.00 0.00 0.00 38 1003.9
20260504020149 62 292 1.0 1.0 0.00 0.00 0.00 37 1003.8
20260504015646 62 243 1.0 2.0 0.00 0.00 0.00 36 1003.9
20260504015142 62 285 1.0 1.0 0.00 0.00 0.00 36 1003.9
20260504014638 62 272 1.0 1.0 0.00 0.00 0.00 36 1003.8
20260504014136 63 273 1.0 1.0 0.00 0.00 0.00 35 1003.8
20260504013633 63 249 1.0 1.0 0.00 0.00 0.00 34 1003.9
20260504013130 64 260 1.0 1.0 0.00 0.00 0.00 33 1003.6
20260504012627 64 266 2.0 2.0 0.00 0.00 0.00 33 1004.0
20260504012125 64 293 0.0 1.0 0.00 0.00 0.00 35 1003.9
20260504011622 64 289 1.0 1.0 0.00 0.00 0.00 34 1004.0
20260504011118 65 305 0.0 1.0 0.00 0.00 0.00 33 1004.1
20260504010614 66 273 0.0 0.0 0.00 0.00 0.00 32 1003.8
20260504010110 66 287 1.0 1.0 0.00 0.00 0.00 31 1004.1
20260504005607 67 258 4.0 5.0 0.00 0.00 0.00 29 1004.1
20260504005104 68 283 5.0 5.0 0.00 0.00 0.00 27 1004.1
20260504004602 68 285 3.0 5.0 0.00 0.00 0.00 27 1004.2
20260504004059 68 275 4.0 5.0 0.00 0.00 0.00 27 1004.1
20260504003555 68 310 2.0 2.0 0.00 0.00 0.00 27 1004.3
20260504003052 68 221 3.0 6.0 0.00 0.00 0.00 27 1004.1
20260504002549 68 252 3.0 5.0 0.00 0.00 0.00 26 1004.2
20260504002046 68 275 3.0 5.0 0.00 0.00 0.00 25 1004.3
20260504001544 68 308 6.0 7.0 0.00 0.00 0.00 24 1004.4
20260504001039 68 300 5.0 6.0 0.00 0.00 0.00 24 1004.4
20260504000537 68 298 7.0 10.0 0.00 0.00 0.00 24 1004.4
20260504000035 69 276 5.0 7.0 0.00 0.00 0.00 25 1004.4
20260503235533 69 339 5.0 7.0 0.00 0.00 0.00 26 1004.1
20260503235029 69 328 7.0 9.0 0.00 0.00 0.00 26 1004.5
20260503234527 69 254 3.0 7.0 0.00 0.00 0.00 26 1004.4
20260503234025 69 292 4.0 5.0 0.00 0.00 0.00 26 1004.4
20260503233521 70 311 7.0 8.0 0.00 0.00 0.00 26 1004.4
20260503233017 70 293 6.0 7.0 0.00 0.00 0.00 25 1004.3
20260503232514 70 239 1.0 2.0 0.00 0.00 0.00 26 1004.6
20260503232012 70 263 6.0 7.0 0.00 0.00 0.00 26 1004.3
20260503231510 70 273 3.0 6.0 0.00 0.00 0.00 25 1004.5
20260503231006 70 253 7.0 8.0 0.00 0.00 0.00 25 1004.5
20260503230503 71 296 7.0 9.0 0.00 0.00 0.00 25 1004.4
20260503230000 70 55 3.0 3.0 0.00 0.00 0.00 24 1004.6
20260503225456 70 276 3.0 3.0 0.00 0.00 0.00 26 1004.6
20260503224952 70 290 5.0 6.0 0.00 0.00 0.00 25 1004.7
20260503224449 69 283 3.0 3.0 0.00 0.00 0.00 26 1004.8
20260503223947 70 280 3.0 5.0 0.00 0.00 0.00 26 1004.9
20260503223445 70 251 4.0 7.0 0.00 0.00 0.00 26 1004.7
20260503222940 70 273 4.0 6.0 0.00 0.00 0.00 26 1005.0
20260503222439 71 260 7.0 9.0 0.00 0.00 0.00 25 1004.8
20260503221937 71 294 6.0 8.0 0.00 0.00 0.00 24 1005.0
20260503221435 70 313 6.0 7.0 0.00 0.00 0.00 24 1005.0
20260503220931 70 250 10.0 14.0 0.00 0.00 0.00 24 1005.0
20260503220427 70 289 9.0 13.0 0.00 0.00 0.00 24 1005.1
20260503215925 70 262 5.0 6.0 0.00 0.00 0.00 25 1005.0
20260503215422 69 318 7.0 8.0 0.00 0.00 0.00 25 1005.4
20260503214919 70 259 5.0 8.0 0.00 0.00 0.00 25 1005.0
20260503214416 70 281 4.0 6.0 0.00 0.00 0.00 25 1005.4
20260503213914 70 328 5.0 7.0 0.00 0.00 0.00 25 1005.5
20260503213412 70 30 5.0 7.0 0.00 0.00 0.00 24 1005.2
20260503212908 71 331 3.0 6.0 0.00 0.00 0.00 24 1005.5
20260503212406 70 334 3.0 3.0 0.00 0.00 0.00 24 1005.2
20260503211903 70 342 5.0 8.0 0.00 0.00 0.00 24 1005.5
20260503211359 70 302 7.0 8.0 0.00 0.00 0.00 23 1005.5
20260503210854 69 280 6.0 7.0 0.00 0.00 0.00 25 1005.8
20260503210352 70 282 3.0 3.0 0.00 0.00 0.00 25 1005.6
20260503205847 69 285 9.0 11.0 0.00 0.00 0.00 25 1005.7
20260503205344 69 280 5.0 7.0 0.00 0.00 0.00 25 1005.9
20260503204840 70 326 5.0 7.0 0.00 0.00 0.00 25 1006.1
20260503204338 70 342 8.0 11.0 0.00 0.00 0.00 25 1005.8
20260503203835 70 316 9.0 11.0 0.00 0.00 0.00 24 1005.8
20260503203332 70 9 5.0 6.0 0.00 0.00 0.00 24 1006.0
20260503202829 69 279 5.0 8.0 0.00 0.00 0.00 25 1005.9
20260503202327 70 281 8.0 9.0 0.00 0.00 0.00 23 1005.8
20260503201825 69 322 10.0 15.0 0.00 0.00 0.00 23 1006.1
20260503201322 69 319 6.0 8.0 0.00 0.00 0.00 24 1006.1
20260503200820 70 291 4.0 7.0 0.00 0.00 0.00 23 1006.1
20260503200315 69 329 7.0 9.0 0.00 0.00 0.00 23 1006.2
20260503195813 71 325 1.0 2.0 0.00 0.00 0.00 27 1006.1
20260503195309 70 304 3.0 5.0 0.00 0.00 0.00 25 1006.3
20260503194807 69 353 5.0 7.0 0.00 0.00 0.00 24 1006.5
20260503194302 69 295 4.0 6.0 0.00 0.00 0.00 26 1006.3
20260503193758 69 297 2.0 2.0 0.00 0.00 0.00 27 1006.4
20260503193255 69 273 6.0 8.0 0.00 0.00 0.00 26 1006.4
20260503192750 69 344 2.0 3.0 0.00 0.00 0.00 28 1006.5
20260503192245 70 274 11.0 13.0 0.00 0.00 0.00 27 1006.6
20260503191737 69 16 2.0 2.0 0.00 0.00 0.00 33 1006.6
20260503191229 69 11 1.0 2.0 0.00 0.00 0.00 30 1006.9
20260503190725 69 27 4.0 6.0 0.00 0.00 0.00 27 1006.9
20260503190222 69 295 10.0 13.0 0.00 0.00 0.00 27 1006.8
20260503185720 68 62 2.0 3.0 0.00 0.00 0.00 29 1006.6
20260503185215 69 241 11.0 16.0 0.00 0.00 0.00 29 1006.7
20260503184715 69 8 2.0 2.0 0.00 0.00 0.00 29 1007.0
20260503184211 69 325 7.0 8.0 0.00 0.00 0.00 31 1006.7
20260503183708 68 318 6.0 6.0 0.00 0.00 0.00 30 1006.6
20260503183205 68 6 7.0 10.0 0.00 0.00 0.00 28 1006.9
20260503182704 67 300 8.0 11.0 0.00 0.00 0.00 28 1006.9
20260503182202 68 318 8.0 9.0 0.00 0.00 0.00 28 1006.9
20260503181658 68 265 5.0 7.0 0.00 0.00 0.00 27 1006.9
20260503181155 69 306 3.0 5.0 0.00 0.00 0.00 28 1007.0
20260503180651 68 259 2.0 3.0 0.00 0.00 0.00 27 1006.8
20260503180150 68 4 4.0 5.0 0.00 0.00 0.00 29 1006.8
20260503175647 68 18 4.0 7.0 0.00 0.00 0.00 29 1007.1
20260503175144 67 304 8.0 10.0 0.00 0.00 0.00 29 1007.0
20260503174640 68 318 5.0 8.0 0.00 0.00 0.00 30 1007.2
20260503174137 67 313 5.0 7.0 0.00 0.00 0.00 33 1007.2
20260503173632 67 349 5.0 8.0 0.00 0.00 0.00 34 1006.9
20260503173129 67 321 7.0 9.0 0.00 0.00 0.00 34 1007.0
20260503172626 67 340 4.0 6.0 0.00 0.00 0.00 38 1007.1
20260503172124 67 317 3.0 5.0 0.00 0.00 0.00 36 1007.3
20260503171620 66 322 8.0 11.0 0.00 0.00 0.00 38 1007.1
20260503171117 66 304 8.0 13.0 0.00 0.00 0.00 34 1007.2
20260503170614 66 288 8.0 10.0 0.00 0.00 0.00 36 1007.1
20260503170110 67 305 4.0 6.0 0.00 0.00 0.00 39 1007.2
20260503151000 64 334 4.0 6.0 0.00 0.00 0.00 44 1007.0
20260503150456 63 359 2.0 3.0 0.00 0.00 0.00 47 1006.9
20260503131343 56 319 4.0 7.0 0.00 0.00 0.00 55 1006.1
20260503130842 56 335 5.0 7.0 0.00 0.00 0.00 55 1006.1
20260503130339 55 329 9.0 11.0 0.00 0.00 0.00 55 1006.3
20260503110732 52 284 1.0 1.0 0.00 0.00 0.00 55 1004.7
20260503110229 52 283 2.0 3.0 0.00 0.00 0.00 55 1004.4
20260503100150 55 176 1.0 1.0 0.00 0.00 0.00 52 1004.8
20260503090109 57 222 6.0 7.0 0.00 0.00 0.00 48 1004.7
20260503081539 58 216 4.0 6.0 0.00 0.00 0.00 49 1005.2
20260503081037 58 193 3.0 3.0 0.00 0.00 0.00 50 1005.1
20260503080532 59 214 2.0 2.0 0.00 0.00 0.00 49 1005.4